Time,TemperatureF,DewpointF,PressureIn,WindDirection,WindDirectionDegrees,WindSpeedMPH,WindSpeedGustMPH,Humidity,HourlyPrecipIn,Conditions,Clouds,dailyrainin,SolarRadiationWatts/m^2,SoftwareType,DateUTC
2013-02-07 00:21:00,23.0,21.0,-100.00,North,359,3.0,7.0,91,0.00,,,0.00,0.000000,,2013-02-07 09:21:00,
2013-02-07 00:31:00,23.0,21.0,-100.00,North,359,3.0,7.0,91,0.00,,,0.00,0.000000,,2013-02-07 09:31:00,
2013-02-07 00:41:00,23.0,21.0,-100.00,North,359,3.0,7.0,91,0.00,,,0.00,0.000000,,2013-02-07 09:41:00,
2013-02-07 00:51:00,23.0,21.0,-100.00,North,359,3.0,7.0,91,0.00,,,0.00,0.000000,,2013-02-07 09:51:00,
2013-02-07 01:22:00,23.0,20.0,-100.00,NNE,13,1.0,4.0,88,0.00,,,0.00,0.000000,,2013-02-07 10:22:00,
2013-02-07 01:31:00,23.0,20.0,-100.00,NNE,13,1.0,4.0,88,0.00,,,0.00,0.000000,,2013-02-07 10:31:00,
2013-02-07 01:41:00,23.0,20.0,-100.00,NNE,13,1.0,4.0,88,0.00,,,0.00,0.000000,,2013-02-07 10:41:00,
2013-02-07 01:51:00,23.0,20.0,-100.00,NNE,13,1.0,4.0,88,0.00,,,0.00,0.000000,,2013-02-07 10:51:00,
2013-02-07 02:22:00,22.0,19.0,-100.00,SSW,211,0.0,4.0,88,0.00,,,0.00,0.000000,,2013-02-07 11:22:00,
2013-02-07 02:32:00,22.0,19.0,-100.00,SSW,211,0.0,4.0,88,0.00,,,0.00,0.000000,,2013-02-07 11:32:00,
2013-02-07 02:43:00,22.0,19.0,-100.00,SSW,211,0.0,4.0,88,0.00,,,0.00,0.000000,,2013-02-07 11:43:00,
2013-02-07 02:52:00,22.0,19.0,-100.00,SSW,211,0.0,4.0,88,0.00,,,0.00,0.000000,,2013-02-07 11:52:00,
2013-02-07 03:22:00,24.0,22.0,-100.00,NW,322,2.0,4.0,91,0.00,,,0.00,0.000000,,2013-02-07 12:22:00,
2013-02-07 03:32:00,24.0,22.0,-100.00,NW,322,2.0,4.0,91,0.00,,,0.00,0.000000,,2013-02-07 12:32:00,
2013-02-07 03:42:00,24.0,22.0,-100.00,NW,322,2.0,4.0,91,0.00,,,0.00,0.000000,,2013-02-07 12:42:00,
2013-02-07 03:52:00,24.0,22.0,-100.00,NW,322,2.0,4.0,91,0.00,,,0.00,0.000000,,2013-02-07 12:52:00,
2013-02-07 04:12:00,26.0,22.0,-100.00,NW,326,1.0,4.0,85,0.00,,,0.00,0.000000,,2013-02-07 13:12:00,
2013-02-07 04:21:00,26.0,22.0,-100.00,NW,326,1.0,4.0,85,0.00,,,0.00,0.000000,,2013-02-07 13:21:00,
2013-02-07 04:32:00,26.0,22.0,-100.00,NW,326,1.0,4.0,85,0.00,,,0.00,0.000000,,2013-02-07 13:32:00,
2013-02-07 04:42:00,26.0,22.0,-100.00,NW,326,1.0,4.0,85,0.00,,,0.00,0.000000,,2013-02-07 13:42:00,
2013-02-07 04:51:00,26.0,22.0,-100.00,NW,326,1.0,4.0,85,0.00,,,0.00,0.000000,,2013-02-07 13:51:00,
2013-02-07 05:11:00,26.0,22.0,-100.00,NW,325,2.0,5.0,86,0.00,,,0.00,0.000000,,2013-02-07 14:11:00,
2013-02-07 05:21:00,26.0,22.0,-100.00,NW,325,2.0,5.0,86,0.00,,,0.00,0.000000,,2013-02-07 14:21:00,
2013-02-07 05:32:00,26.0,22.0,-100.00,NW,325,2.0,5.0,86,0.00,,,0.00,0.000000,,2013-02-07 14:32:00,
2013-02-07 05:41:00,26.0,22.0,-100.00,NW,325,2.0,5.0,86,0.00,,,0.00,0.000000,,2013-02-07 14:41:00,
2013-02-07 05:52:00,26.0,22.0,-100.00,NW,325,2.0,5.0,86,0.00,,,0.00,0.000000,,2013-02-07 14:52:00,
2013-02-07 06:11:00,26.0,26.0,-100.00,NNW,329,3.0,4.0,100,0.00,,,0.00,0.000000,,2013-02-07 15:11:00,
2013-02-07 06:22:00,26.0,26.0,-100.00,NNW,329,3.0,4.0,100,0.00,,,0.00,0.000000,,2013-02-07 15:22:00,
2013-02-07 06:32:00,26.0,26.0,-100.00,NNW,329,3.0,4.0,100,0.00,,,0.00,0.000000,,2013-02-07 15:32:00,
2013-02-07 06:41:00,26.0,26.0,-100.00,NNW,329,3.0,4.0,100,0.00,,,0.00,0.000000,,2013-02-07 15:41:00,
2013-02-07 06:52:00,26.0,26.0,-100.00,NNW,329,3.0,4.0,100,0.00,,,0.00,0.000000,,2013-02-07 15:52:00,
2013-02-07 07:11:00,27.0,25.0,-100.00,NNW,343,4.0,9.0,93,0.00,,,0.00,0.000000,,2013-02-07 16:11:00,
2013-02-07 07:21:00,27.0,25.0,-100.00,NNW,343,4.0,9.0,93,0.00,,,0.00,0.000000,,2013-02-07 16:21:00,
2013-02-07 07:31:00,27.0,25.0,-100.00,NNW,343,4.0,9.0,93,0.00,,,0.00,0.000000,,2013-02-07 16:31:00,
2013-02-07 07:41:00,27.0,25.0,-100.00,NNW,343,4.0,9.0,93,0.00,,,0.00,0.000000,,2013-02-07 16:41:00,
2013-02-07 07:52:00,27.0,25.0,-100.00,NNW,343,4.0,9.0,93,0.00,,,0.00,0.000000,,2013-02-07 16:52:00,
2013-02-07 08:21:00,28.0,25.0,-100.00,North,359,7.0,11.0,90,0.00,,,0.00,0.000000,,2013-02-07 17:21:00,
2013-02-07 08:31:00,28.0,25.0,-100.00,North,359,7.0,11.0,90,0.00,,,0.00,0.000000,,2013-02-07 17:31:00,
2013-02-07 08:42:00,28.0,25.0,-100.00,North,359,7.0,11.0,90,0.00,,,0.00,0.000000,,2013-02-07 17:42:00,
2013-02-07 08:52:00,28.0,25.0,-100.00,North,359,7.0,11.0,90,0.00,,,0.00,0.000000,,2013-02-07 17:52:00,
2013-02-07 09:23:00,29.0,25.0,-100.00,North,2,8.0,18.0,84,0.00,,,0.00,0.000000,,2013-02-07 18:23:00,
2013-02-07 09:31:00,29.0,25.0,-100.00,North,2,8.0,18.0,84,0.00,,,0.00,0.000000,,2013-02-07 18:31:00,
2013-02-07 09:41:00,29.0,25.0,-100.00,North,2,8.0,18.0,84,0.00,,,0.00,0.000000,,2013-02-07 18:41:00,
2013-02-07 09:51:00,29.0,25.0,-100.00,North,2,8.0,18.0,84,0.00,,,0.00,0.000000,,2013-02-07 18:51:00,
2013-02-07 10:11:00,31.0,24.0,-100.00,NNE,17,7.0,14.0,75,0.00,,,0.00,2.000000,,2013-02-07 19:11:00,
2013-02-07 10:22:00,31.0,24.0,-100.00,NNE,17,7.0,14.0,75,0.00,,,0.00,2.000000,,2013-02-07 19:22:00,
2013-02-07 10:31:00,31.0,24.0,-100.00,NNE,17,7.0,14.0,75,0.00,,,0.00,2.000000,,2013-02-07 19:31:00,
2013-02-07 10:41:00,31.0,24.0,-100.00,NNE,17,7.0,14.0,75,0.00,,,0.00,2.000000,,2013-02-07 19:41:00,
2013-02-07 10:51:00,31.0,24.0,-100.00,NNE,17,7.0,14.0,75,0.00,,,0.00,2.000000,,2013-02-07 19:51:00,
2013-02-07 11:21:00,33.0,23.0,-100.00,NE,39,5.0,17.0,66,0.00,,,0.00,10.000000,,2013-02-07 20:21:00,
2013-02-07 11:31:00,33.0,23.0,-100.00,NE,39,5.0,17.0,66,0.00,,,0.00,10.000000,,2013-02-07 20:31:00,
2013-02-07 11:41:00,33.0,23.0,-100.00,NE,39,5.0,17.0,66,0.00,,,0.00,10.000000,,2013-02-07 20:41:00,
2013-02-07 11:52:00,33.0,23.0,-100.00,NE,39,5.0,17.0,66,0.00,,,0.00,10.000000,,2013-02-07 20:52:00,
2013-02-07 12:11:00,34.0,23.0,-100.00,ENE,63,6.0,19.0,64,0.00,,,0.00,13.000000,,2013-02-07 21:11:00,
2013-02-07 12:21:00,34.0,23.0,-100.00,ENE,63,6.0,19.0,64,0.00,,,0.00,13.000000,,2013-02-07 21:21:00,
2013-02-07 12:31:00,34.0,23.0,-100.00,ENE,63,6.0,19.0,64,0.00,,,0.00,13.000000,,2013-02-07 21:31:00,
2013-02-07 12:41:00,34.0,23.0,-100.00,ENE,63,6.0,19.0,64,0.00,,,0.00,13.000000,,2013-02-07 21:41:00,
2013-02-07 12:51:00,34.0,23.0,-100.00,ENE,63,6.0,19.0,64,0.00,,,0.00,13.000000,,2013-02-07 21:51:00,
2013-02-07 13:11:00,35.0,25.0,-100.00,NE,47,7.0,16.0,67,0.00,,,0.00,39.000000,,2013-02-07 22:11:00,
2013-02-07 13:21:00,35.0,25.0,-100.00,NE,47,7.0,16.0,67,0.00,,,0.00,39.000000,,2013-02-07 22:21:00,
2013-02-07 13:31:00,35.0,25.0,-100.00,NE,47,7.0,16.0,67,0.00,,,0.00,39.000000,,2013-02-07 22:31:00,
2013-02-07 13:42:00,35.0,25.0,-100.00,NE,47,7.0,16.0,67,0.00,,,0.00,39.000000,,2013-02-07 22:42:00,
2013-02-07 13:51:00,35.0,25.0,-100.00,NE,47,7.0,16.0,67,0.00,,,0.00,39.000000,,2013-02-07 22:51:00,
2013-02-07 14:11:00,35.0,26.0,-100.00,SSW,196,4.0,21.0,70,0.00,,,0.00,43.000000,,2013-02-07 23:11:00,
2013-02-07 14:21:00,35.0,26.0,-100.00,SSW,196,4.0,21.0,70,0.00,,,0.00,43.000000,,2013-02-07 23:21:00,
2013-02-07 14:31:00,35.0,26.0,-100.00,SSW,196,4.0,21.0,70,0.00,,,0.00,43.000000,,2013-02-07 23:31:00,
2013-02-07 14:41:00,35.0,26.0,-100.00,SSW,196,4.0,21.0,70,0.00,,,0.00,43.000000,,2013-02-07 23:41:00,
2013-02-07 14:52:00,35.0,26.0,-100.00,SSW,196,4.0,21.0,70,0.00,,,0.00,43.000000,,2013-02-07 23:52:00,
2013-02-07 15:21:00,35.0,28.0,-100.00,NNE,21,2.0,11.0,75,0.00,,,0.00,63.000000,,2013-02-08 00:21:00,
2013-02-07 15:31:00,35.0,28.0,-100.00,NNE,21,2.0,11.0,75,0.00,,,0.00,63.000000,,2013-02-08 00:31:00,
2013-02-07 15:41:00,35.0,28.0,-100.00,NNE,21,2.0,11.0,75,0.00,,,0.00,63.000000,,2013-02-08 00:41:00,
2013-02-07 15:52:00,35.0,28.0,-100.00,NNE,21,2.0,11.0,75,0.00,,,0.00,63.000000,,2013-02-08 00:52:00,
2013-02-07 16:41:00,37.0,27.0,-100.00,North,351,4.0,11.0,68,0.00,,,0.00,197.000000,,2013-02-08 01:41:00,
2013-02-07 16:51:00,37.0,27.0,-100.00,North,351,4.0,11.0,68,0.00,,,0.00,197.000000,,2013-02-08 01:51:00,
2013-02-07 17:21:00,32.0,23.0,-100.00,WNW,292,3.0,9.0,68,0.00,,,0.00,66.000000,,2013-02-08 02:21:00,
2013-02-07 17:31:00,32.0,23.0,-100.00,WNW,292,3.0,9.0,68,0.00,,,0.00,66.000000,,2013-02-08 02:31:00,
2013-02-07 17:42:00,32.0,23.0,-100.00,WNW,292,3.0,9.0,68,0.00,,,0.00,66.000000,,2013-02-08 02:42:00,
2013-02-07 17:52:00,32.0,23.0,-100.00,WNW,292,3.0,9.0,68,0.00,,,0.00,66.000000,,2013-02-08 02:52:00,
2013-02-07 18:12:00,30.0,25.0,-100.00,WNW,287,1.0,5.0,80,0.00,,,0.00,7.000000,,2013-02-08 03:12:00,
2013-02-07 18:22:00,30.0,25.0,-100.00,WNW,287,1.0,5.0,80,0.00,,,0.00,7.000000,,2013-02-08 03:22:00,
2013-02-07 18:32:00,30.0,25.0,-100.00,WNW,287,1.0,5.0,80,0.00,,,0.00,7.000000,,2013-02-08 03:32:00,
2013-02-07 18:41:00,30.0,25.0,-100.00,WNW,287,1.0,5.0,80,0.00,,,0.00,7.000000,,2013-02-08 03:41:00,
2013-02-07 18:51:00,30.0,25.0,-100.00,WNW,287,1.0,5.0,80,0.00,,,0.00,7.000000,,2013-02-08 03:51:00,
2013-02-07 19:21:00,32.0,27.0,-100.00,East,95,1.0,4.0,82,0.00,,,0.00,0.000000,,2013-02-08 04:21:00,
2013-02-07 19:32:00,32.0,27.0,-100.00,East,95,1.0,4.0,82,0.00,,,0.00,0.000000,,2013-02-08 04:32:00,
2013-02-07 19:41:00,32.0,27.0,-100.00,East,95,1.0,4.0,82,0.00,,,0.00,0.000000,,2013-02-08 04:41:00,
2013-02-07 19:51:00,32.0,27.0,-100.00,East,95,1.0,4.0,82,0.00,,,0.00,0.000000,,2013-02-08 04:51:00,
2013-02-07 20:11:00,29.0,25.0,-100.00,NW,310,0.0,4.0,85,0.00,,,0.00,0.000000,,2013-02-08 05:11:00,
2013-02-07 20:22:00,29.0,25.0,-100.00,NW,310,0.0,4.0,85,0.00,,,0.00,0.000000,,2013-02-08 05:22:00,
2013-02-07 20:31:00,29.0,25.0,-100.00,NW,310,0.0,4.0,85,0.00,,,0.00,0.000000,,2013-02-08 05:31:00,
2013-02-07 20:41:00,29.0,25.0,-100.00,NW,310,0.0,4.0,85,0.00,,,0.00,0.000000,,2013-02-08 05:41:00,
2013-02-07 20:52:00,29.0,25.0,-100.00,NW,310,0.0,4.0,85,0.00,,,0.00,0.000000,,2013-02-08 05:52:00,
2013-02-07 21:21:00,29.0,26.0,-100.00,WNW,303,0.0,2.0,89,0.00,,,0.00,0.000000,,2013-02-08 06:21:00,
2013-02-07 21:31:00,29.0,26.0,-100.00,WNW,303,0.0,2.0,89,0.00,,,0.00,0.000000,,2013-02-08 06:31:00,
2013-02-07 21:41:00,29.0,26.0,-100.00,WNW,303,0.0,2.0,89,0.00,,,0.00,0.000000,,2013-02-08 06:41:00,
2013-02-07 21:51:00,29.0,26.0,-100.00,WNW,303,0.0,2.0,89,0.00,,,0.00,0.000000,,2013-02-08 06:51:00,
2013-02-07 22:11:00,30.0,27.0,-100.00,SW,222,0.0,0.0,90,0.00,,,0.00,0.000000,,2013-02-08 07:11:00,
2013-02-07 22:21:00,30.0,27.0,-100.00,SW,222,0.0,0.0,90,0.00,,,0.00,0.000000,,2013-02-08 07:21:00,
2013-02-07 22:31:00,30.0,27.0,-100.00,SW,222,0.0,0.0,90,0.00,,,0.00,0.000000,,2013-02-08 07:31:00,
2013-02-07 22:42:00,30.0,27.0,-100.00,SW,222,0.0,0.0,90,0.00,,,0.00,0.000000,,2013-02-08 07:42:00,
2013-02-07 22:51:00,30.0,27.0,-100.00,SW,222,0.0,0.0,90,0.00,,,0.00,0.000000,,2013-02-08 07:51:00,
2013-02-07 23:11:00,31.0,29.0,-100.00,SSW,204,3.0,6.0,91,0.00,,,0.00,0.000000,,2013-02-08 08:11:00,
2013-02-07 23:21:00,31.0,29.0,-100.00,SSW,204,3.0,6.0,91,0.00,,,0.00,0.000000,,2013-02-08 08:21:00,
2013-02-07 23:32:00,31.0,29.0,-100.00,SSW,204,3.0,6.0,91,0.00,,,0.00,0.000000,,2013-02-08 08:32:00,
2013-02-07 23:41:00,31.0,29.0,-100.00,SSW,204,3.0,6.0,91,0.00,,,0.00,0.000000,,2013-02-08 08:41:00,
2013-02-07 23:52:00,31.0,29.0,-100.00,SSW,204,3.0,6.0,91,0.00,,,0.00,0.000000,,2013-02-08 08:52:00,